Location: Beccas
(43.4309°N, 0.1528°E)
Time: 08:52:01
(UTC+00:00)

Envisat - Visible Passes

Search period start: 23 September 2023 00:00
Search period end: 03 October 2023 00:00
Orbit: 763 x 764 km, 98.2° (Epoch: 22 September)

Date Brightness Start Highest point End Pass type
(mag) Time Alt. Az. Time Alt. Az. Time Alt. Az.
23 Sep 5.5 02:26:47 10° NE 02:29:52 16° E 02:32:18 12° ESE visible
23 Sep 3.0 04:04:15 10° N 04:09:17 64° WNW 04:12:28 22° SSW visible
24 Sep 3.4 03:27:04 10° NNE 03:32:05 59° E 03:34:43 27° S visible
24 Sep 4.4 05:07:07 10° NNW 05:10:37 19° WNW 05:14:05 10° WSW visible
25 Sep 4.8 02:50:25 10° NE 02:54:42 27° E 02:56:59 19° SE visible
25 Sep 3.5 04:29:05 10° N 04:33:46 38° WNW 04:37:08 17° SW visible
26 Sep 5.7 02:15:11 10° ENE 02:17:06 12° E 02:19:00 10° ESE visible
26 Sep 2.9 03:51:36 10° NNE 03:56:42 83° WNW 03:59:23 29° SSW visible
27 Sep 3.9 03:14:34 10° NNE 03:19:27 45° E 03:21:38 28° SSE visible
27 Sep 4.1 04:54:09 10° NNW 04:58:08 24° WNW 05:01:48 11° WSW visible
28 Sep 5.2 02:38:11 10° NE 02:41:59 21° E 02:43:53 17° ESE visible
28 Sep 3.2 04:16:20 10° N 04:21:13 49° WNW 04:24:03 24° SW visible
29 Sep 3.0 03:39:00 10° NNE 03:44:06 77° ESE 03:46:17 35° S visible
29 Sep 4.7 05:19:38 10° NNW 05:22:26 15° WNW 05:25:14 10° W visible
30 Sep 4.4 03:02:08 10° NNE 03:06:46 35° E 03:08:32 27° SE visible
30 Sep 3.8 04:41:16 10° N 04:45:39 30° WNW 04:48:41 17° WSW visible
01 Oct 5.4 02:26:09 10° NE 02:29:14 16° E 02:30:46 14° ESE visible
01 Oct 2.9 04:03:38 10° N 04:08:39 64° WNW 04:10:55 32° SW visible
02 Oct 3.4 03:26:26 10° NNE 03:31:28 59° E 03:33:10 39° SSE visible
02 Oct 4.4 05:06:30 10° NNW 05:09:58 19° WNW 05:13:20 10° WSW visible
